Location: Devore Heights
(34.2372°N, 117.4156°W)
Time: 08:41:01
(UTC+00:00)

A-11 Canister half - Pass Details

Date: 20 September 2024
Orbit: 1515 x 1684 km, 47.2° (Epoch: 07 October)

Event Time Altitude Azimuth Distance (km) Brightness Sun altitude
Rises 07:00:11 0° 305° (NW) 4,667 12.0 -53.5°
Reaches altitude 10° 07:03:14 10° 307° (NW) 3,678 11.3 -53.7°
Enters shadow 07:05:33 20° 309° (NW) 2,948 10.7 -53.8°
Maximum altitude 07:12:30 79° 34° (NE) 1,545 - -54.2°
Drops below altitude 10° 07:21:51 10° 121° (ESE) 3,712 - -54.6°
Sets 07:24:56 0° 123° (ESE) 4,711 - -54.6°
